| time (UTC) | temp F | wind direction | speed MPH | gust MPH | rain 1hr in | rain 24hr in | rain mn in | humidity % | barometer mb |
| 20260509004241 | 75 | 238 | 7.0 | 10.0 | 0.00 | 0.00 | 0.00 | 31 | 1005.9 |
| 20260509003724 | 75 | 248 | 6.0 | 10.0 | 0.00 | 0.00 | 0.00 | 31 | 1005.9 |
| 20260509003229 | 75 | 215 | 3.0 | 9.0 | 0.00 | 0.00 | 0.00 | 32 | 1005.9 |
| 20260509003005 | 75 | 215 | 5.0 | 9.0 | 0.00 | 0.00 | 0.00 | 32 | 1004.8 |
| 20260509002739 | 75 | 207 | 6.0 | 10.0 | 0.00 | 0.00 | 0.00 | 31 | 1005.8 |
| 20260509002248 | 76 | 231 | 7.0 | 10.0 | 0.00 | 0.00 | 0.00 | 31 | 1005.8 |
| 20260509001731 | 76 | 209 | 8.0 | 11.0 | 0.00 | 0.00 | 0.00 | 31 | 1005.8 |
| 20260509001504 | 76 | 214 | 6.0 | 12.0 | 0.00 | 0.00 | 0.00 | 32 | 1004.7 |
| 20260509001302 | 76 | 216 | 7.0 | 14.0 | 0.00 | 0.00 | 0.00 | 31 | 1005.8 |
| 20260509000749 | 77 | 205 | 9.0 | 14.0 | 0.00 | 0.00 | 0.00 | 30 | 1005.8 |
| 20260509000233 | 77 | 178 | 7.0 | 11.0 | 0.00 | 0.00 | 0.00 | 32 | 1005.8 |
| 20260509000046 | 76 | 210 | 7.0 | 11.0 | 0.00 | 0.00 | 0.00 | 31 | 1004.8 |
| 20260508235739 | 76 | 209 | 8.0 | 12.0 | 0.00 | 0.00 | 0.00 | 30 | 1005.8 |
| 20260508235222 | 77 | 226 | 8.0 | 17.0 | 0.00 | 0.00 | 0.00 | 30 | 1005.9 |
| 20260508234732 | 77 | 191 | 8.0 | 17.0 | 0.00 | 0.00 | 0.00 | 30 | 1005.9 |
| 20260508234554 | 76 | 201 | 8.0 | 17.0 | 0.00 | 0.00 | 0.00 | 31 | 1004.9 |
| 20260508234247 | 77 | 212 | 11.0 | 17.0 | 0.00 | 0.00 | 0.00 | 31 | 1006.1 |
| 20260508233725 | 76 | 199 | 8.0 | 15.0 | 0.00 | 0.00 | 0.00 | 31 | 1006.0 |
| 20260508233255 | 76 | 221 | 7.0 | 15.0 | 0.00 | 0.00 | 0.00 | 30 | 1006.0 |
| 20260508233030 | 76 | 179 | 7.0 | 15.0 | 0.00 | 0.00 | 0.00 | 30 | 1004.9 |
| 20260508232745 | 76 | 217 | 8.0 | 13.0 | 0.00 | 0.00 | 0.00 | 29 | 1006.0 |
| 20260508232251 | 77 | 194 | 8.0 | 16.0 | 0.00 | 0.00 | 0.00 | 29 | 1006.0 |
| 20260508231742 | 78 | 205 | 10.0 | 16.0 | 0.00 | 0.00 | 0.00 | 29 | 1006.0 |
| 20260508231621 | 78 | 186 | 11.0 | 16.0 | 0.00 | 0.00 | 0.00 | 29 | 1004.9 |
| 20260508231228 | 78 | 178 | 10.0 | 16.0 | 0.00 | 0.00 | 0.00 | 29 | 1006.0 |
| 20260508230738 | 78 | 192 | 9.0 | 13.0 | 0.00 | 0.00 | 0.00 | 29 | 1006.1 |
| 20260508230249 | 78 | 189 | 9.0 | 14.0 | 0.00 | 0.00 | 0.00 | 28 | 1006.2 |
| 20260508230021 | 78 | 165 | 10.0 | 14.0 | 0.00 | 0.00 | 0.00 | 28 | 1005.1 |
| 20260508225755 | 78 | 201 | 9.0 | 14.0 | 0.00 | 0.00 | 0.00 | 31 | 1006.2 |
| 20260508225241 | 78 | 224 | 7.0 | 11.0 | 0.00 | 0.00 | 0.00 | 30 | 1006.2 |
| 20260508224723 | 78 | 203 | 8.0 | 12.0 | 0.00 | 0.00 | 0.00 | 29 | 1006.3 |
| 20260508224526 | 77 | 219 | 8.0 | 12.0 | 0.00 | 0.00 | 0.00 | 27 | 1005.2 |
| 20260508224237 | 78 | 229 | 8.0 | 12.0 | 0.00 | 0.00 | 0.00 | 27 | 1006.3 |
| 20260508223748 | 78 | 235 | 7.0 | 13.0 | 0.00 | 0.00 | 0.00 | 29 | 1006.3 |
| 20260508223230 | 78 | 209 | 9.0 | 13.0 | 0.00 | 0.00 | 0.00 | 29 | 1006.3 |
| 20260508223037 | 77 | 178 | 9.0 | 20.0 | 0.00 | 0.00 | 0.00 | 30 | 1005.2 |
| 20260508222742 | 77 | 171 | 10.0 | 20.0 | 0.00 | 0.00 | 0.00 | 32 | 1006.3 |
| 20260508222224 | 77 | 219 | 14.0 | 26.0 | 0.00 | 0.00 | 0.00 | 29 | 1006.3 |
| 20260508221734 | 77 | 227 | 16.0 | 26.0 | 0.00 | 0.00 | 0.00 | 28 | 1006.3 |
| 20260508221518 | 77 | 232 | 13.0 | 24.0 | 0.00 | 0.00 | 0.00 | 29 | 1005.2 |
| 20260508221243 | 77 | 278 | 15.0 | 25.0 | 0.00 | 0.00 | 0.00 | 29 | 1006.3 |
| 20260508220725 | 77 | 221 | 17.0 | 25.0 | 0.00 | 0.00 | 0.00 | 29 | 1006.5 |
| 20260508220236 | 78 | 228 | 10.0 | 14.0 | 0.00 | 0.00 | 0.00 | 28 | 1006.6 |
| 20260508220032 | 76 | 242 | 7.0 | 10.0 | 0.00 | 0.00 | 0.00 | 29 | 1005.6 |
| 20260508215746 | 76 | 234 | 7.0 | 13.0 | 0.00 | 0.00 | 0.00 | 29 | 1006.7 |
| 20260508215257 | 75 | 206 | 8.0 | 14.0 | 0.00 | 0.00 | 0.00 | 28 | 1006.6 |
| 20260508214747 | 76 | 180 | 9.0 | 14.0 | 0.00 | 0.00 | 0.00 | 28 | 1006.6 |
| 20260508214617 | 75 | 212 | 6.0 | 11.0 | 0.00 | 0.00 | 0.00 | 28 | 1005.5 |
| 20260508214233 | 76 | 168 | 4.0 | 15.0 | 0.00 | 0.00 | 0.00 | 27 | 1006.7 |
| 20260508213757 | 77 | 196 | 9.0 | 15.0 | 0.00 | 0.00 | 0.00 | 25 | 1006.7 |
| 20260508213247 | 77 | 90 | 8.0 | 16.0 | 0.00 | 0.00 | 0.00 | 28 | 1006.8 |
| 20260508213027 | 78 | 238 | 8.0 | 13.0 | 0.00 | 0.00 | 0.00 | 26 | 1005.8 |
| 20260508212729 | 79 | 209 | 8.0 | 13.0 | 0.00 | 0.00 | 0.00 | 25 | 1006.9 |
| 20260508212241 | 80 | 192 | 9.0 | 14.0 | 0.00 | 0.00 | 0.00 | 27 | 1006.9 |
| 20260508211723 | 79 | 222 | 9.0 | 14.0 | 0.00 | 0.00 | 0.00 | 27 | 1006.9 |
| 20260508211530 | 78 | 232 | 5.0 | 18.0 | 0.00 | 0.00 | 0.00 | 27 | 1005.9 |
| 20260508211236 | 79 | 262 | 10.0 | 18.0 | 0.00 | 0.00 | 0.00 | 26 | 1007.0 |
| 20260508210746 | 79 | 219 | 13.0 | 18.0 | 0.00 | 0.00 | 0.00 | 26 | 1007.1 |
| 20260508210230 | 78 | 263 | 10.0 | 16.0 | 0.00 | 0.00 | 0.00 | 27 | 1007.1 |
| 20260508210034 | 77 | 221 | 8.0 | 16.0 | 0.00 | 0.00 | 0.00 | 27 | 1006.1 |
| 20260508205735 | 79 | 244 | 9.0 | 16.0 | 0.00 | 0.00 | 0.00 | 28 | 1007.1 |
| 20260508205243 | 79 | 258 | 8.0 | 17.0 | 0.00 | 0.00 | 0.00 | 28 | 1007.2 |
| 20260508204726 | 80 | 253 | 11.0 | 20.0 | 0.00 | 0.00 | 0.00 | 27 | 1007.3 |
| 20260508204528 | 79 | 277 | 8.0 | 20.0 | 0.00 | 0.00 | 0.00 | 28 | 1006.3 |
| 20260508204300 | 80 | 236 | 13.0 | 20.0 | 0.00 | 0.00 | 0.00 | 26 | 1007.4 |
| 20260508203722 | 79 | 242 | 7.0 | 15.0 | 0.00 | 0.00 | 0.00 | 29 | 1007.5 |
| 20260508203234 | 78 | 240 | 4.0 | 17.0 | 0.00 | 0.00 | 0.00 | 23 | 1007.5 |
| 20260508203007 | 79 | 229 | 4.0 | 17.0 | 0.00 | 0.00 | 0.00 | 25 | 1006.5 |
| 20260508202745 | 80 | 136 | 8.0 | 17.0 | 0.00 | 0.00 | 0.00 | 26 | 1007.5 |
| 20260508202223 | 81 | 180 | 7.0 | 12.0 | 0.00 | 0.00 | 0.00 | 27 | 1007.6 |
| 20260508201733 | 79 | 217 | 8.0 | 14.0 | 0.00 | 0.00 | 0.00 | 26 | 1007.7 |
| 20260508201513 | 77 | 287 | 9.0 | 14.0 | 0.00 | 0.00 | 0.00 | 27 | 1006.7 |
| 20260508201248 | 77 | 317 | 10.0 | 14.0 | 0.00 | 0.00 | 0.00 | 29 | 1007.7 |
| 20260508200728 | 77 | 319 | 7.0 | 12.0 | 0.00 | 0.00 | 0.00 | 25 | 1007.9 |
| 20260508200238 | 77 | 349 | 8.0 | 16.0 | 0.00 | 0.00 | 0.00 | 29 | 1008.0 |
| 20260508200015 | 77 | 315 | 9.0 | 16.0 | 0.00 | 0.00 | 0.00 | 29 | 1007.0 |
| 20260508195747 | 76 | 308 | 11.0 | 16.0 | 0.00 | 0.00 | 0.00 | 27 | 1007.9 |
| 20260508195236 | 77 | 276 | 11.0 | 16.0 | 0.00 | 0.00 | 0.00 | 27 | 1008.0 |
| 20260508194742 | 78 | 261 | 6.0 | 15.0 | 0.00 | 0.00 | 0.00 | 27 | 1008.1 |
| 20260508194554 | 78 | 292 | 7.0 | 15.0 | 0.00 | 0.00 | 0.00 | 29 | 1007.1 |
| 20260508194226 | 79 | 351 | 8.0 | 15.0 | 0.00 | 0.00 | 0.00 | 25 | 1008.1 |
| 20260508193736 | 79 | 340 | 9.0 | 15.0 | 0.00 | 0.00 | 0.00 | 26 | 1008.2 |
| 20260508193226 | 80 | 317 | 12.0 | 15.0 | 0.00 | 0.00 | 0.00 | 26 | 1008.2 |
| 20260508193105 | 79 | 324 | 7.0 | 12.0 | 0.00 | 0.00 | 0.00 | 26 | 1007.2 |
| 20260508192736 | 79 | 299 | 6.0 | 9.0 | 0.00 | 0.00 | 0.00 | 30 | 1008.3 |
| 20260508192307 | 77 | 207 | 1.0 | 10.0 | 0.00 | 0.00 | 0.00 | 31 | 1008.3 |
| 20260508191730 | 77 | 205 | 4.0 | 10.0 | 0.00 | 0.00 | 0.00 | 31 | 1008.3 |
| 20260508191535 | 76 | 205 | 6.0 | 10.0 | 0.00 | 0.00 | 0.00 | 28 | 1007.4 |
| 20260508191238 | 76 | 224 | 7.0 | 14.0 | 0.00 | 0.00 | 0.00 | 29 | 1008.4 |
| 20260508190720 | 74 | 207 | 4.0 | 14.0 | 0.00 | 0.00 | 0.00 | 25 | 1008.5 |
| 20260508190233 | 76 | 271 | 9.0 | 13.0 | 0.00 | 0.00 | 0.00 | 25 | 1008.5 |
| 20260508190028 | 76 | 242 | 7.0 | 11.0 | 0.00 | 0.00 | 0.00 | 27 | 1007.6 |
| 20260508185805 | 76 | 205 | 7.0 | 12.0 | 0.00 | 0.00 | 0.00 | 27 | 1008.6 |
| 20260508185227 | 76 | 201 | 3.0 | 13.0 | 0.00 | 0.00 | 0.00 | 25 | 1008.7 |
| 20260508184737 | 77 | 222 | 9.0 | 13.0 | 0.00 | 0.00 | 0.00 | 29 | 1008.7 |
| 20260508184559 | 77 | 224 | 8.0 | 11.0 | 0.00 | 0.00 | 0.00 | 28 | 1007.7 |
| 20260508184502 | 77 | 270 | 5.0 | 11.0 | 0.00 | 0.00 | 0.00 | 27 | 1007.7 |
| 20260508184250 | 78 | 244 | 5.0 | 11.0 | 0.00 | 0.00 | 0.00 | 28 | 1008.7 |
| 20260508183730 | 78 | 207 | 4.0 | 10.0 | 0.00 | 0.00 | 0.00 | 24 | 1008.7 |
| 20260508183237 | 76 | 213 | 7.0 | 11.0 | 0.00 | 0.00 | 0.00 | 28 | 1008.8 |
| 20260508183001 | 76 | 222 | 5.0 | 11.0 | 0.00 | 0.00 | 0.00 | 25 | 1007.9 |
| 20260508182748 | 76 | 258 | 5.0 | 11.0 | 0.00 | 0.00 | 0.00 | 26 | 1008.9 |
| 20260508182232 | 76 | 200 | 5.0 | 9.0 | 0.00 | 0.00 | 0.00 | 26 | 1008.9 |
| 20260508181742 | 76 | 232 | 2.0 | 10.0 | 0.00 | 0.00 | 0.00 | 28 | 1008.9 |
| 20260508181507 | 76 | 232 | 4.0 | 10.0 | 0.00 | 0.00 | 0.00 | 28 | 1008.1 |
| 20260508181224 | 78 | 256 | 5.0 | 10.0 | 0.00 | 0.00 | 0.00 | 28 | 1009.0 |
| 20260508180732 | 78 | 348 | 4.0 | 6.0 | 0.00 | 0.00 | 0.00 | 26 | 1009.1 |
| 20260508180243 | 77 | 65 | 3.0 | 5.0 | 0.00 | 0.00 | 0.00 | 29 | 1009.1 |
| 20260508180044 | 77 | 65 | 1.0 | 6.0 | 0.00 | 0.00 | 0.00 | 30 | 1008.2 |
| 20260508175728 | 76 | 217 | 3.0 | 8.0 | 0.00 | 0.00 | 0.00 | 31 | 1009.1 |
| 20260508175254 | 75 | 126 | 4.0 | 8.0 | 0.00 | 0.00 | 0.00 | 25 | 1009.1 |
| 20260508174745 | 75 | 95 | 6.0 | 9.0 | 0.00 | 0.00 | 0.00 | 30 | 1009.2 |
| 20260508174611 | 74 | 81 | 3.0 | 9.0 | 0.00 | 0.00 | 0.00 | 28 | 1008.3 |
| 20260508174236 | 75 | 108 | 6.0 | 9.0 | 0.00 | 0.00 | 0.00 | 28 | 1009.3 |
| 20260508173747 | 75 | 99 | 4.0 | 6.0 | 0.00 | 0.00 | 0.00 | 29 | 1009.4 |
| 20260508173229 | 74 | 103 | 3.0 | 7.0 | 0.00 | 0.00 | 0.00 | 30 | 1009.4 |
| 20260508173006 | 73 | 5 | 3.0 | 8.0 | 0.00 | 0.00 | 0.00 | 29 | 1008.5 |
| 20260508172741 | 74 | 28 | 4.0 | 8.0 | 0.00 | 0.00 | 0.00 | 27 | 1009.4 |
| 20260508172221 | 75 | 5 | 5.0 | 8.0 | 0.00 | 0.00 | 0.00 | 27 | 1009.5 |
| 20260508171754 | 75 | 28 | 2.0 | 5.0 | 0.00 | 0.00 | 0.00 | 31 | 1009.5 |
| 20260508171551 | 74 | 279 | 1.0 | 6.0 | 0.00 | 0.00 | 0.00 | 30 | 1008.6 |
| 20260508171244 | 74 | 279 | 1.0 | 8.0 | 0.00 | 0.00 | 0.00 | 28 | 1009.6 |
| 20260508170726 | 74 | 19 | 5.0 | 10.0 | 0.00 | 0.00 | 0.00 | 26 | 1009.6 |
| 20260508170237 | 75 | 17 | 6.0 | 10.0 | 0.00 | 0.00 | 0.00 | 32 | 1009.6 |
| 20260508170054 | 74 | 355 | 3.0 | 10.0 | 0.00 | 0.00 | 0.00 | 31 | 1008.6 |
| 20260508170003 | 74 | 342 | 3.0 | 10.0 | 0.00 | 0.00 | 0.00 | 31 | 1008.6 |
| 20260508165720 | 74 | 202 | 1.0 | 10.0 | 0.00 | 0.00 | 0.00 | 31 | 1009.6 |
| 20260508165233 | 75 | 48 | 5.0 | 10.0 | 0.00 | 0.00 | 0.00 | 29 | 1009.6 |
| 20260508164741 | 76 | 317 | 4.0 | 11.0 | 0.00 | 0.00 | 0.00 | 29 | 1009.6 |
| 20260508164516 | 75 | 360 | 7.0 | 11.0 | 0.00 | 0.00 | 0.00 | 27 | 1008.6 |
| 20260508164225 | 75 | 63 | 7.0 | 11.0 | 0.00 | 0.00 | 0.00 | 28 | 1009.5 |
| 20260508163754 | 76 | 320 | 4.0 | 8.0 | 0.00 | 0.00 | 0.00 | 33 | 1009.6 |
| 20260508163244 | 74 | 134 | 3.0 | 8.0 | 0.00 | 0.00 | 0.00 | 37 | 1009.7 |
| 20260508163042 | 73 | 134 | 2.0 | 8.0 | 0.00 | 0.00 | 0.00 | 32 | 1008.7 |
| 20260508162728 | 74 | 93 | 6.0 | 8.0 | 0.00 | 0.00 | 0.00 | 32 | 1009.7 |
| 20260508162240 | 72 | 60 | 2.0 | 5.0 | 0.00 | 0.00 | 0.00 | 35 | 1009.6 |
| 20260508161749 | 73 | 120 | 1.0 | 9.0 | 0.00 | 0.00 | 0.00 | 36 | 1009.7 |
| 20260508161534 | 72 | 120 | 3.0 | 9.0 | 0.00 | 0.00 | 0.00 | 34 | 1008.7 |
| 20260508161238 | 73 | 140 | 5.0 | 9.0 | 0.00 | 0.00 | 0.00 | 35 | 1009.6 |
| 20260508160721 | 72 | 134 | 2.0 | 6.0 | 0.00 | 0.00 | 0.00 | 35 | 1009.7 |
| 20260508160253 | 73 | 143 | 2.0 | 6.0 | 0.00 | 0.00 | 0.00 | 40 | 1009.8 |
| 20260508160014 | 71 | 162 | 2.0 | 8.0 | 0.00 | 0.00 | 0.00 | 36 | 1008.8 |
| 20260508155743 | 71 | 227 | 2.0 | 8.0 | 0.00 | 0.00 | 0.00 | 39 | 1009.9 |
| 20260508155227 | 72 | 202 | 5.0 | 8.0 | 0.00 | 0.00 | 0.00 | 41 | 1009.8 |
| 20260508154739 | 70 | 130 | 4.0 | 7.0 | 0.00 | 0.00 | 0.00 | 45 | 1009.9 |
| 20260508154515 | 70 | 163 | 3.0 | 8.0 | 0.00 | 0.00 | 0.00 | 42 | 1009.0 |
| 20260508154225 | 70 | 161 | 3.0 | 8.0 | 0.00 | 0.00 | 0.00 | 46 | 1009.9 |
| 20260508153733 | 69 | 171 | 4.0 | 11.0 | 0.00 | 0.00 | 0.00 | 42 | 1010.0 |
| 20260508153240 | 68 | 184 | 3.0 | 11.0 | 0.00 | 0.00 | 0.00 | 47 | 1010.0 |
| 20260508153051 | 67 | 157 | 5.0 | 11.0 | 0.00 | 0.00 | 0.00 | 44 | 1009.1 |
| 20260508152723 | 68 | 155 | 5.0 | 8.0 | 0.00 | 0.00 | 0.00 | 45 | 1010.1 |
| 20260508152233 | 66 | 146 | 4.0 | 8.0 | 0.00 | 0.00 | 0.00 | 47 | 1010.0 |
| 20260508151745 | 65 | 144 | 4.0 | 8.0 | 0.00 | 0.00 | 0.00 | 47 | 1009.9 |
| 20260508151601 | 65 | 144 | 5.0 | 8.0 | 0.00 | 0.00 | 0.00 | 48 | 1009.1 |
| 20260508151230 | 65 | 153 | 5.0 | 8.0 | 0.00 | 0.00 | 0.00 | 47 | 1009.9 |
| 20260508150801 | 66 | 148 | 5.0 | 11.0 | 0.00 | 0.00 | 0.00 | 46 | 1009.9 |
| 20260508150223 | 65 | 175 | 6.0 | 11.0 | 0.00 | 0.00 | 0.00 | 45 | 1010.0 |
| 20260508150043 | 65 | 165 | 7.0 | 11.0 | 0.00 | 0.00 | 0.00 | 43 | 1009.1 |
| 20260508145729 | 65 | 147 | 8.0 | 10.0 | 0.00 | 0.00 | 0.00 | 45 | 1010.0 |
| 20260508145241 | 64 | 172 | 5.0 | 9.0 | 0.00 | 0.00 | 0.00 | 53 | 1010.0 |
| 20260508144724 | 64 | 147 | 6.0 | 9.0 | 0.00 | 0.00 | 0.00 | 46 | 1010.1 |
| 20260508144546 | 64 | 124 | 6.0 | 11.0 | 0.00 | 0.00 | 0.00 | 48 | 1009.2 |
| 20260508144257 | 63 | 156 | 5.0 | 11.0 | 0.00 | 0.00 | 0.00 | 50 | 1010.2 |
| 20260508143747 | 62 | 160 | 6.0 | 12.0 | 0.00 | 0.00 | 0.00 | 52 | 1010.2 |
| 20260508143257 | 61 | 169 | 5.0 | 7.0 | 0.00 | 0.00 | 0.00 | 52 | 1010.3 |
| 20260508143053 | 61 | 170 | 4.0 | 7.0 | 0.00 | 0.00 | 0.00 | 51 | 1009.5 |
| 20260508142742 | 61 | 152 | 2.0 | 5.0 | 0.00 | 0.00 | 0.00 | 53 | 1010.3 |
| 20260508142225 | 61 | 152 | 1.0 | 7.0 | 0.00 | 0.00 | 0.00 | 54 | 1010.3 |
| 20260508141739 | 61 | 159 | 3.0 | 7.0 | 0.00 | 0.00 | 0.00 | 57 | 1010.3 |
| 20260508141555 | 60 | 163 | 3.0 | 7.0 | 0.00 | 0.00 | 0.00 | 55 | 1009.4 |
| 20260508141249 | 60 | 180 | 4.0 | 6.0 | 0.00 | 0.00 | 0.00 | 55 | 1010.2 |
| 20260508140730 | 59 | 166 | 4.0 | 7.0 | 0.00 | 0.00 | 0.00 | 57 | 1010.2 |
| 20260508140241 | 58 | 184 | 5.0 | 7.0 | 0.00 | 0.00 | 0.00 | 59 | 1010.3 |
| 20260508140044 | 57 | 171 | 2.0 | 4.0 | 0.00 | 0.00 | 0.00 | 60 | 1009.4 |
| 20260508135724 | 57 | 171 | 2.0 | 4.0 | 0.00 | 0.00 | 0.00 | 63 | 1010.3 |
| 20260508135232 | 55 | 171 | 1.0 | 4.0 | 0.00 | 0.00 | 0.00 | 65 | 1010.2 |
| 20260508134744 | 55 | 171 | 2.0 | 4.0 | 0.00 | 0.00 | 0.00 | 67 | 1010.3 |
| 20260508134528 | 54 | 171 | 2.0 | 5.0 | 0.00 | 0.00 | 0.00 | 66 | 1009.4 |
| 20260508134227 | 54 | 171 | 2.0 | 6.0 | 0.00 | 0.00 | 0.00 | 64 | 1010.3 |
| 20260508133736 | 54 | 171 | 4.0 | 6.0 | 0.00 | 0.00 | 0.00 | 64 | 1010.4 |
| 20260508133247 | 54 | 171 | 3.0 | 5.0 | 0.00 | 0.00 | 0.00 | 62 | 1010.4 |
| 20260508133031 | 54 | 178 | 1.0 | 3.0 | 0.00 | 0.00 | 0.00 | 62 | 1009.6 |
| 20260508132728 | 54 | 178 | 2.0 | 5.0 | 0.00 | 0.00 | 0.00 | 62 | 1010.4 |
| 20260508132240 | 54 | 178 | 2.0 | 6.0 | 0.00 | 0.00 | 0.00 | 62 | 1010.4 |
| 20260508131724 | 54 | 175 | 4.0 | 7.0 | 0.00 | 0.00 | 0.00 | 61 | 1010.4 |
| 20260508131542 | 53 | 185 | 4.0 | 7.0 | 0.00 | 0.00 | 0.00 | 61 | 1009.6 |
| 20260508131232 | 54 | 189 | 4.0 | 7.0 | 0.00 | 0.00 | 0.00 | 60 | 1010.3 |
| 20260508130741 | 54 | 162 | 4.0 | 8.0 | 0.00 | 0.00 | 0.00 | 59 | 1010.2 |
| 20260508130310 | 54 | 157 | 5.0 | 7.0 | 0.00 | 0.00 | 0.00 | 58 | 1010.0 |
| 20260508130023 | 53 | 172 | 3.0 | 5.0 | 0.00 | 0.00 | 0.00 | 59 | 1009.2 |
| 20260508125731 | 53 | 172 | 3.0 | 5.0 | 0.00 | 0.00 | 0.00 | 58 | 1010.0 |
| 20260508125244 | 53 | 173 | 3.0 | 7.0 | 0.00 | 0.00 | 0.00 | 59 | 1009.9 |
| 20260508124727 | 53 | 218 | 4.0 | 7.0 | 0.00 | 0.00 | 0.00 | 58 | 1009.9 |
| 20260508124534 | 53 | 134 | 4.0 | 7.0 | 0.00 | 0.00 | 0.00 | 58 | 1009.1 |
| 20260508124243 | 53 | 158 | 5.0 | 7.0 | 0.00 | 0.00 | 0.00 | 58 | 1009.9 |
| 20260508123727 | 53 | 176 | 4.0 | 6.0 | 0.00 | 0.00 | 0.00 | 58 | 1009.9 |
| 20260508123235 | 52 | 158 | 2.0 | 8.0 | 0.00 | 0.00 | 0.00 | 58 | 1009.9 |
| 20260508123029 | 52 | 279 | 0.0 | 8.0 | 0.00 | 0.00 | 0.00 | 58 | 1009.1 |
| 20260508122805 | 52 | 301 | 4.0 | 8.0 | 0.00 | 0.00 | 0.00 | 60 | 1010.0 |
| 20260508122226 | 52 | 17 | 2.0 | 9.0 | 0.00 | 0.00 | 0.00 | 59 | 1009.9 |
| 20260508121739 | 51 | 13 | 4.0 | 9.0 | 0.00 | 0.00 | 0.00 | 60 | 1009.9 |
| 20260508121517 | 51 | 14 | 6.0 | 9.0 | 0.00 | 0.00 | 0.00 | 60 | 1009.2 |
| 20260508121252 | 51 | 309 | 5.0 | 8.0 | 0.00 | 0.00 | 0.00 | 60 | 1010.0 |
| 20260508120735 | 51 | 44 | 5.0 | 6.0 | 0.00 | 0.00 | 0.00 | 59 | 1009.8 |
| 20260508120246 | 51 | 348 | 4.0 | 9.0 | 0.00 | 0.00 | 0.00 | 59 | 1009.9 |
| 20260508120031 | 50 | 5 | 3.0 | 9.0 | 0.00 | 0.00 | 0.00 | 59 | 1009.0 |
| 20260508115725 | 51 | 355 | 6.0 | 9.0 | 0.00 | 0.00 | 0.00 | 59 | 1009.9 |
| 20260508115235 | 51 | 338 | 4.0 | 6.0 | 0.00 | 0.00 | 0.00 | 60 | 1010.0 |
| 20260508114748 | 50 | 355 | 4.0 | 6.0 | 0.00 | 0.00 | 0.00 | 60 | 1010.0 |
| 20260508114527 | 50 | 347 | 4.0 | 5.0 | 0.00 | 0.00 | 0.00 | 59 | 1009.2 |
| 20260508114231 | 50 | 5 | 5.0 | 5.0 | 0.00 | 0.00 | 0.00 | 59 | 1009.7 |
| 20260508113742 | 50 | 168 | 5.0 | 5.0 | 0.00 | 0.00 | 0.00 | 59 | 1009.7 |
| 20260508113224 | 50 | 168 | 4.0 | 5.0 | 0.00 | 0.00 | 0.00 | 58 | 1009.7 |
| 20260508113029 | 50 | 168 | 3.0 | 5.0 | 0.00 | 0.00 | 0.00 | 58 | 1008.9 |
| 20260508112739 | 50 | 168 | 4.0 | 5.0 | 0.00 | 0.00 | 0.00 | 58 | 1009.7 |
| 20260508112239 | 50 | 168 | 3.0 | 5.0 | 0.00 | 0.00 | 0.00 | 57 | 1009.7 |
| 20260508111739 | 51 | 168 | 3.0 | 5.0 | 0.00 | 0.00 | 0.00 | 57 | 1009.7 |
| 20260508111544 | 50 | 168 | 3.0 | 5.0 | 0.00 | 0.00 | 0.00 | 57 | 1009.0 |
| 20260508111301 | 51 | 168 | 4.0 | 6.0 | 0.00 | 0.00 | 0.00 | 57 | 1009.7 |
| 20260508110750 | 51 | 168 | 4.0 | 6.0 | 0.00 | 0.00 | 0.00 | 57 | 1009.8 |
| 20260508110306 | 51 | 168 | 5.0 | 6.0 | 0.00 | 0.00 | 0.00 | 57 | 1009.8 |
| 20260508110022 | 51 | 168 | 5.0 | 6.0 | 0.00 | 0.00 | 0.00 | 57 | 1009.0 |
| 20260508105731 | 51 | 168 | 4.0 | 5.0 | 0.00 | 0.00 | 0.00 | 57 | 1009.9 |
| 20260508105321 | 51 | 168 | 1.0 | 8.0 | 0.00 | 0.00 | 0.00 | 56 | 1009.8 |
| 20260508104728 | 51 | 168 | 5.0 | 9.0 | 0.00 | 0.00 | 0.00 | 56 | 1009.7 |
| 20260508104542 | 51 | 168 | 5.0 | 9.0 | 0.00 | 0.00 | 0.00 | 56 | 1008.9 |
| 20260508104241 | 52 | 163 | 5.0 | 9.0 | 0.00 | 0.00 | 0.00 | 55 | 1009.7 |
| 20260508103722 | 52 | 14 | 5.0 | 9.0 | 0.00 | 0.00 | 0.00 | 56 | 1010.0 |
| 20260508103235 | 52 | 20 | 6.0 | 9.0 | 0.00 | 0.00 | 0.00 | 56 | 1009.9 |
| 20260508103048 | 51 | 17 | 7.0 | 9.0 | 0.00 | 0.00 | 0.00 | 56 | 1009.2 |
| 20260508102743 | 52 | 10 | 7.0 | 10.0 | 0.00 | 0.00 | 0.00 | 57 | 1010.1 |
| 20260508102227 | 52 | 21 | 8.0 | 10.0 | 0.00 | 0.00 | 0.00 | 58 | 1010.2 |
| 20260508101740 | 52 | 12 | 7.0 | 9.0 | 0.00 | 0.00 | 0.00 | 56 | 1009.9 |
| 20260508101556 | 51 | 13 | 5.0 | 8.0 | 0.00 | 0.00 | 0.00 | 55 | 1009.2 |
| 20260508101249 | 52 | 9 | 4.0 | 6.0 | 0.00 | 0.00 | 0.00 | 56 | 1010.0 |
| 20260508100731 | 52 | 32 | 3.0 | 8.0 | 0.00 | 0.00 | 0.00 | 56 | 1010.1 |
| 20260508100259 | 52 | 5 | 6.0 | 8.0 | 0.00 | 0.00 | 0.00 | 57 | 1010.2 |
| 20260508100034 | 51 | 13 | 5.0 | 8.0 | 0.00 | 0.00 | 0.00 | 57 | 1009.4 |
| 20260508095722 | 52 | 17 | 6.0 | 9.0 | 0.00 | 0.00 | 0.00 | 59 | 1010.2 |
| 20260508095234 | 52 | 25 | 6.0 | 9.0 | 0.00 | 0.00 | 0.00 | 59 | 1010.2 |
| 20260508094744 | 52 | 19 | 6.0 | 8.0 | 0.00 | 0.00 | 0.00 | 56 | 1010.3 |
| 20260508094537 | 52 | 5 | 6.0 | 8.0 | 0.00 | 0.00 | 0.00 | 56 | 1009.7 |
| 20260508094229 | 53 | 355 | 5.0 | 8.0 | 0.00 | 0.00 | 0.00 | 56 | 1010.4 |
| 20260508093735 | 53 | 5 | 6.0 | 8.0 | 0.00 | 0.00 | 0.00 | 55 | 1010.4 |
| 20260508093247 | 53 | 5 | 5.0 | 6.0 | 0.00 | 0.00 | 0.00 | 53 | 1010.3 |
| 20260508093036 | 53 | 5 | 4.0 | 5.0 | 0.00 | 0.00 | 0.00 | 52 | 1009.6 |
| 20260508092729 | 54 | 201 | 4.0 | 4.0 | 0.00 | 0.00 | 0.00 | 51 | 1010.2 |
| 20260508092239 | 54 | 201 | 2.0 | 4.0 | 0.00 | 0.00 | 0.00 | 50 | 1010.2 |
| 20260508091750 | 54 | 201 | 2.0 | 4.0 | 0.00 | 0.00 | 0.00 | 50 | 1010.1 |
| 20260508091538 | 54 | 201 | 2.0 | 4.0 | 0.00 | 0.00 | 0.00 | 50 | 1009.5 |
| 20260508091236 | 54 | 202 | 1.0 | 3.0 | 0.00 | 0.00 | 0.00 | 50 | 1010.3 |
| 20260508090745 | 55 | 201 | 2.0 | 3.0 | 0.00 | 0.00 | 0.00 | 50 | 1010.3 |
| 20260508090225 | 55 | 201 | 0.0 | 4.0 | 0.00 | 0.00 | 0.00 | 49 | 1010.3 |
| 20260508090040 | 54 | 201 | 0.0 | 4.0 | 0.00 | 0.00 | 0.00 | 49 | 1009.7 |
| 20260508085752 | 55 | 201 | 3.0 | 4.0 | 0.00 | 0.00 | 0.00 | 48 | 1010.2 |
| 20260508085243 | 55 | 5 | 0.0 | 4.0 | 0.00 | 0.00 | 0.00 | 49 | 1010.3 |
| 20260508084726 | 55 | 5 | 1.0 | 4.0 | 0.00 | 0.00 | 0.00 | 49 | 1010.5 |
| 20260508084522 | 55 | 5 | 2.0 | 4.0 | 0.00 | 0.00 | 0.00 | 51 | 1009.7 |
| 20260508084240 | 55 | 360 | 3.0 | 5.0 | 0.00 | 0.00 | 0.00 | 50 | 1010.3 |
| 20260508083751 | 55 | 20 | 3.0 | 5.0 | 0.00 | 0.00 | 0.00 | 49 | 1010.1 |
| 20260508083301 | 55 | 204 | 3.0 | 4.0 | 0.00 | 0.00 | 0.00 | 48 | 1010.1 |
| 20260508083037 | 55 | 204 | 2.0 | 4.0 | 0.00 | 0.00 | 0.00 | 49 | 1009.4 |
| 20260508082725 | 56 | 204 | 1.0 | 4.0 | 0.00 | 0.00 | 0.00 | 48 | 1010.5 |
| 20260508082252 | 56 | 204 | 3.0 | 4.0 | 0.00 | 0.00 | 0.00 | 48 | 1010.2 |
| 20260508081742 | 56 | 204 | 2.0 | 4.0 | 0.00 | 0.00 | 0.00 | 48 | 1010.3 |
| 20260508081520 | 55 | 204 | 0.0 | 4.0 | 0.00 | 0.00 | 0.00 | 47 | 1009.8 |
| 20260508081256 | 56 | 204 | 2.0 | 4.0 | 0.00 | 0.00 | 0.00 | 46 | 1010.4 |
| 20260508080804 | 56 | 204 | 2.0 | 4.0 | 0.00 | 0.00 | 0.00 | 46 | 1010.6 |
| 20260508080225 | 56 | 204 | 0.0 | 7.0 | 0.00 | 0.00 | 0.00 | 47 | 1010.6 |
| 20260508080046 | 56 | 204 | 1.0 | 7.0 | 0.00 | 0.00 | 0.00 | 47 | 1010.1 |
| 20260508075731 | 56 | 204 | 5.0 | 7.0 | 0.00 | 0.00 | 0.00 | 46 | 1010.8 |
| 20260508075238 | 57 | 74 | 3.0 | 4.0 | 0.00 | 0.00 | 0.00 | 46 | 1010.6 |
| 20260508074809 | 57 | 120 | 1.0 | 2.0 | 0.00 | 0.00 | 0.00 | 46 | 1011.0 |
| 20260508074526 | 56 | 120 | 0.0 | 2.0 | 0.00 | 0.00 | 0.00 | 48 | 1010.4 |
| 20260508074232 | 57 | 120 | 1.0 | 3.0 | 0.00 | 0.00 | 0.00 | 46 | 1010.7 |
| 20260508073743 | 57 | 120 | 1.0 | 3.0 | 0.00 | 0.00 | 0.00 | 43 | 1010.8 |
| 20260508073226 | 57 | 120 | 2.0 | 6.0 | 0.00 | 0.00 | 0.00 | 43 | 1010.7 |
| 20260508073025 | 56 | 120 | 2.0 | 6.0 | 0.00 | 0.00 | 0.00 | 43 | 1010.0 |
| 20260508072737 | 57 | 120 | 3.0 | 6.0 | 0.00 | 0.00 | 0.00 | 43 | 1010.5 |
| 20260508072249 | 57 | 76 | 4.0 | 5.0 | 0.00 | 0.00 | 0.00 | 44 | 1010.3 |
| 20260508071727 | 57 | 52 | 1.0 | 6.0 | 0.00 | 0.00 | 0.00 | 43 | 1010.6 |
| 20260508071533 | 56 | 50 | 0.0 | 6.0 | 0.00 | 0.00 | 0.00 | 45 | 1010.0 |
| 20260508071240 | 57 | 34 | 4.0 | 6.0 | 0.00 | 0.00 | 0.00 | 46 | 1010.3 |
| 20260508070722 | 57 | 40 | 5.0 | 6.0 | 0.00 | 0.00 | 0.00 | 45 | 1010.3 |
| 20260508070234 | 57 | 26 | 4.0 | 5.0 | 0.00 | 0.00 | 0.00 | 44 | 1010.4 |
| 20260508070035 | 56 | 30 | 4.0 | 5.0 | 0.00 | 0.00 | 0.00 | 44 | 1009.8 |
| 20260508065746 | 57 | 52 | 4.0 | 5.0 | 0.00 | 0.00 | 0.00 | 43 | 1010.4 |
| 20260508065231 | 57 | 52 | 4.0 | 7.0 | 0.00 | 0.00 | 0.00 | 44 | 1010.4 |
| 20260508064742 | 57 | 38 | 5.0 | 7.0 | 0.00 | 0.00 | 0.00 | 46 | 1010.4 |
| 20260508064541 | 56 | 39 | 4.0 | 5.0 | 0.00 | 0.00 | 0.00 | 45 | 1009.8 |
| 20260508064228 | 57 | 53 | 4.0 | 5.0 | 0.00 | 0.00 | 0.00 | 44 | 1010.4 |
| 20260508063733 | 57 | 53 | 3.0 | 5.0 | 0.00 | 0.00 | 0.00 | 42 | 1010.6 |
| 20260508063245 | 57 | 54 | 4.0 | 5.0 | 0.00 | 0.00 | 0.00 | 42 | 1010.5 |
| 20260508063027 | 56 | 137 | 3.0 | 4.0 | 0.00 | 0.00 | 0.00 | 42 | 1010.0 |
| 20260508062728 | 57 | 137 | 3.0 | 4.0 | 0.00 | 0.00 | 0.00 | 43 | 1010.6 |
| 20260508062241 | 57 | 137 | 1.0 | 4.0 | 0.00 | 0.00 | 0.00 | 43 | 1010.7 |
| 20260508061724 | 57 | 137 | 2.0 | 4.0 | 0.00 | 0.00 | 0.00 | 43 | 1010.8 |
| 20260508061539 | 57 | 137 | 3.0 | 4.0 | 0.00 | 0.00 | 0.00 | 43 | 1010.2 |
| 20260508061237 | 58 | 137 | 4.0 | 4.0 | 0.00 | 0.00 | 0.00 | 43 | 1010.8 |
| 20260508060745 | 58 | 137 | 3.0 | 4.0 | 0.00 | 0.00 | 0.00 | 40 | 1010.8 |
| 20260508060229 | 58 | 91 | 2.0 | 4.0 | 0.00 | 0.00 | 0.00 | 39 | 1010.8 |
| 20260508060041 | 57 | 91 | 2.0 | 4.0 | 0.00 | 0.00 | 0.00 | 39 | 1010.1 |
| 20260508055738 | 58 | 91 | 3.0 | 4.0 | 0.00 | 0.00 | 0.00 | 40 | 1010.7 |
| 20260508055222 | 58 | 61 | 3.0 | 4.0 | 0.00 | 0.00 | 0.00 | 40 | 1010.6 |
| 20260508054733 | 58 | 57 | 3.0 | 4.0 | 0.00 | 0.00 | 0.00 | 40 | 1010.5 |
| 20260508054549 | 58 | 57 | 3.0 | 4.0 | 0.00 | 0.00 | 0.00 | 40 | 1009.8 |
| 20260508054244 | 58 | 57 | 3.0 | 5.0 | 0.00 | 0.00 | 0.00 | 40 | 1010.5 |
| 20260508053724 | 58 | 56 | 3.0 | 5.0 | 0.00 | 0.00 | 0.00 | 40 | 1010.4 |
| 20260508053236 | 58 | 57 | 3.0 | 5.0 | 0.00 | 0.00 | 0.00 | 40 | 1010.4 |
| 20260508053101 | 58 | 51 | 3.0 | 5.0 | 0.00 | 0.00 | 0.00 | 40 | 1009.8 |
| 20260508052746 | 58 | 53 | 4.0 | 5.0 | 0.00 | 0.00 | 0.00 | 40 | 1010.3 |
| 20260508052230 | 58 | 66 | 4.0 | 5.0 | 0.00 | 0.00 | 0.00 | 40 | 1010.4 |
| 20260508051737 | 58 | 58 | 4.0 | 5.0 | 0.00 | 0.00 | 0.00 | 40 | 1010.3 |
| 20260508051605 | 58 | 56 | 3.0 | 5.0 | 0.00 | 0.00 | 0.00 | 39 | 1009.8 |
| 20260508051249 | 58 | 50 | 4.0 | 6.0 | 0.00 | 0.00 | 0.00 | 39 | 1010.4 |
| 20260508050739 | 58 | 22 | 4.0 | 6.0 | 0.00 | 0.00 | 0.00 | 39 | 1010.4 |
| 20260508050248 | 58 | 24 | 4.0 | 5.0 | 0.00 | 0.00 | 0.00 | 40 | 1010.4 |
| 20260508050033 | 58 | 39 | 3.0 | 6.0 | 0.00 | 0.00 | 0.00 | 39 | 1010.0 |
| 20260508045749 | 58 | 42 | 4.0 | 6.0 | 0.00 | 0.00 | 0.00 | 39 | 1010.5 |
| 20260508045232 | 58 | 42 | 4.0 | 6.0 | 0.00 | 0.00 | 0.00 | 39 | 1010.6 |
| 20260508044743 | 58 | 49 | 4.0 | 5.0 | 0.00 | 0.00 | 0.00 | 38 | 1010.7 |
| 20260508044515 | 58 | 58 | 3.0 | 5.0 | 0.00 | 0.00 | 0.00 | 38 | 1010.2 |
| 20260508044232 | 58 | 58 | 3.0 | 4.0 | 0.00 | 0.00 | 0.00 | 38 | 1010.7 |
| 20260508043744 | 58 | 58 | 3.0 | 4.0 | 0.00 | 0.00 | 0.00 | 38 | 1010.8 |
| 20260508043228 | 58 | 62 | 3.0 | 5.0 | 0.00 | 0.00 | 0.00 | 37 | 1010.8 |
| 20260508043022 | 58 | 62 | 3.0 | 5.0 | 0.00 | 0.00 | 0.00 | 37 | 1010.3 |
| 20260508042739 | 59 | 62 | 3.0 | 5.0 | 0.00 | 0.00 | 0.00 | 37 | 1010.8 |
| 20260508042252 | 59 | 66 | 4.0 | 5.0 | 0.00 | 0.00 | 0.00 | 37 | 1010.7 |
| 20260508041743 | 59 | 71 | 4.0 | 5.0 | 0.00 | 0.00 | 0.00 | 37 | 1010.7 |
| 20260508041608 | 58 | 64 | 3.0 | 5.0 | 0.00 | 0.00 | 0.00 | 37 | 1010.2 |
| 20260508041514 | 58 | 65 | 3.0 | 5.0 | 0.00 | 0.00 | 0.00 | 37 | 1010.2 |
| 20260508041227 | 59 | 66 | 3.0 | 5.0 | 0.00 | 0.00 | 0.00 | 37 | 1010.8 |
| 20260508040733 | 59 | 67 | 4.0 | 7.0 | 0.00 | 0.00 | 0.00 | 37 | 1010.8 |
| 20260508040243 | 59 | 83 | 4.0 | 7.0 | 0.00 | 0.00 | 0.00 | 37 | 1010.8 |
| 20260508040010 | 58 | 92 | 4.0 | 7.0 | 0.00 | 0.00 | 0.00 | 37 | 1010.2 |
| 20260508035726 | 59 | 88 | 5.0 | 7.0 | 0.00 | 0.00 | 0.00 | 37 | 1010.7 |
| 20260508035237 | 59 | 86 | 4.0 | 7.0 | 0.00 | 0.00 | 0.00 | 37 | 1010.6 |
| 20260508034723 | 59 | 83 | 4.0 | 7.0 | 0.00 | 0.00 | 0.00 | 37 | 1010.5 |
| 20260508034526 | 59 | 68 | 4.0 | 6.0 | 0.00 | 0.00 | 0.00 | 36 | 1010.1 |
| 20260508034237 | 60 | 86 | 4.0 | 6.0 | 0.00 | 0.00 | 0.00 | 36 | 1010.6 |
| 20260508033746 | 60 | 82 | 4.0 | 6.0 | 0.00 | 0.00 | 0.00 | 36 | 1010.6 |
| 20260508033237 | 60 | 49 | 4.0 | 5.0 | 0.00 | 0.00 | 0.00 | 36 | 1010.7 |
| 20260508033009 | 60 | 49 | 3.0 | 4.0 | 0.00 | 0.00 | 0.00 | 36 | 1010.2 |
| 20260508032748 | 60 | 49 | 3.0 | 4.0 | 0.00 | 0.00 | 0.00 | 36 | 1010.8 |
| 20260508032238 | 60 | 49 | 3.0 | 4.0 | 0.00 | 0.00 | 0.00 | 36 | 1010.8 |
| 20260508031749 | 61 | 49 | 3.0 | 4.0 | 0.00 | 0.00 | 0.00 | 35 | 1010.7 |
| 20260508031532 | 60 | 49 | 3.0 | 4.0 | 0.00 | 0.00 | 0.00 | 35 | 1010.2 |
| 20260508031302 | 61 | 49 | 3.0 | 4.0 | 0.00 | 0.00 | 0.00 | 35 | 1010.7 |
| 20260508030723 | 61 | 49 | 3.0 | 5.0 | 0.00 | 0.00 | 0.00 | 35 | 1010.7 |
| 20260508030237 | 61 | 49 | 4.0 | 5.0 | 0.00 | 0.00 | 0.00 | 35 | 1010.7 |
| 20260508030019 | 61 | 49 | 3.0 | 5.0 | 0.00 | 0.00 | 0.00 | 35 | 1010.2 |
| 20260508025744 | 61 | 49 | 4.0 | 5.0 | 0.00 | 0.00 | 0.00 | 35 | 1010.7 |
| 20260508025225 | 61 | 49 | 4.0 | 5.0 | 0.00 | 0.00 | 0.00 | 34 | 1010.7 |
| 20260508024736 | 61 | 49 | 4.0 | 6.0 | 0.00 | 0.00 | 0.00 | 34 | 1010.6 |
| 20260508024525 | 61 | 49 | 3.0 | 6.0 | 0.00 | 0.00 | 0.00 | 34 | 1010.1 |
| 20260508024223 | 62 | 49 | 4.0 | 6.0 | 0.00 | 0.00 | 0.00 | 33 | 1010.5 |
| 20260508023736 | 62 | 44 | 3.0 | 5.0 | 0.00 | 0.00 | 0.00 | 33 | 1010.5 |
| 20260508023222 | 62 | 44 | 2.0 | 4.0 | 0.00 | 0.00 | 0.00 | 32 | 1010.5 |
| 20260508023030 | 62 | 32 | 2.0 | 5.0 | 0.00 | 0.00 | 0.00 | 32 | 1010.1 |
| 20260508022733 | 62 | 42 | 3.0 | 5.0 | 0.00 | 0.00 | 0.00 | 32 | 1010.5 |
| 20260508022244 | 63 | 26 | 3.0 | 5.0 | 0.00 | 0.00 | 0.00 | 32 | 1010.4 |
| 20260508021727 | 63 | 19 | 4.0 | 5.0 | 0.00 | 0.00 | 0.00 | 31 | 1010.3 |
| 20260508021530 | 63 | 10 | 3.0 | 5.0 | 0.00 | 0.00 | 0.00 | 31 | 1009.8 |
| 20260508021239 | 63 | 9 | 3.0 | 4.0 | 0.00 | 0.00 | 0.00 | 31 | 1010.2 |
| 20260508020750 | 64 | 9 | 2.0 | 4.0 | 0.00 | 0.00 | 0.00 | 31 | 1010.0 |
| 20260508020242 | 64 | 9 | 2.0 | 4.0 | 0.00 | 0.00 | 0.00 | 30 | 1010.0 |
| 20260508020058 | 64 | 9 | 3.0 | 4.0 | 0.00 | 0.00 | 0.00 | 30 | 1009.4 |
| 20260508015733 | 64 | 9 | 3.0 | 4.0 | 0.00 | 0.00 | 0.00 | 30 | 1009.9 |
| 20260508015246 | 65 | 5 | 3.0 | 5.0 | 0.00 | 0.00 | 0.00 | 30 | 1009.9 |
| 20260508014730 | 65 | 9 | 3.0 | 6.0 | 0.00 | 0.00 | 0.00 | 29 | 1009.9 |
| 20260508014600 | 65 | 355 | 3.0 | 6.0 | 0.00 | 0.00 | 0.00 | 30 | 1009.4 |
| 20260508014243 | 65 | 350 | 4.0 | 6.0 | 0.00 | 0.00 | 0.00 | 30 | 1009.8 |
| 20260508013809 | 66 | 355 | 4.0 | 6.0 | 0.00 | 0.00 | 0.00 | 29 | 1009.9 |
| 20260508013235 | 66 | 350 | 4.0 | 6.0 | 0.00 | 0.00 | 0.00 | 29 | 1009.8 |
| 20260508013044 | 66 | 355 | 4.0 | 6.0 | 0.00 | 0.00 | 0.00 | 28 | 1009.2 |
| 20260508012748 | 67 | 343 | 5.0 | 6.0 | 0.00 | 0.00 | 0.00 | 28 | 1009.7 |
| 20260508012233 | 67 | 355 | 4.0 | 6.0 | 0.00 | 0.00 | 0.00 | 28 | 1009.6 |
| 20260508011807 | 68 | 350 | 5.0 | 10.0 | 0.00 | 0.00 | 0.00 | 28 | 1009.6 |
| 20260508011524 | 68 | 5 | 4.0 | 10.0 | 0.00 | 0.00 | 0.00 | 28 | 1009.1 |
| 20260508011232 | 68 | 355 | 6.0 | 10.0 | 0.00 | 0.00 | 0.00 | 27 | 1009.5 |
| 20260508010744 | 69 | 360 | 7.0 | 10.0 | 0.00 | 0.00 | 0.00 | 27 | 1009.5 |
| 20260508010221 | 70 | 360 | 7.0 | 9.0 | 0.00 | 0.00 | 0.00 | 27 | 1009.5 |
| 20260508010029 | 69 | 360 | 5.0 | 9.0 | 0.00 | 0.00 | 0.00 | 27 | 1009.0 |
| 20260508005754 | 70 | 347 | 5.0 | 9.0 | 0.00 | 0.00 | 0.00 | 27 | 1009.4 |
| 20260508005245 | 70 | 345 | 4.0 | 6.0 | 0.00 | 0.00 | 0.00 | 26 | 1009.4 |
| 20260508004733 | 70 | 340 | 4.0 | 8.0 | 0.00 | 0.00 | 0.00 | 26 | 1009.4 |
| 20260508004514 | 70 | 316 | 4.0 | 13.0 | 0.00 | 0.00 | 0.00 | 26 | 1008.9 |